Find Kosmos-1235

NORAD ID: 12114 Int'l Des: 1980-102 Owner: GUKOSR Country: SU operational
LEOCIRCULAR

当前视图

正在加载3D地球...

About Kosmos-1235

Kosmos-1235 (NORAD 12114) is a satellite launched Dec 23, 1980 by GUKOSR of SU. It operates in LEO, CIRCULAR orbit with a mass of 60.00 kg.

即将过境

Passes for default location (London). Set your location on the main map for personalized predictions.

高度历史

Loading altitude history...

两行轨道根数

1 12114U 80102H 26194.48901647 -.00000021 00000-0 -31774-4 0 9992
2 12114 73.9956 351.8718 0032188 59.0754 358.4558 12.56235108 88899
Epoch: Jul 13, 2026 • Age: 14 hours

当前状态

高度 1431.4 km
远地点 / 近地点 N/A
速度 7.16 km/s
星下点 71.81°N, 158.87°E
发射日期 Dec 23, 1980
运行时间 45.5 years
类型 other

技术详情

分类 Payload
质量 60.00 kg
干质量 60.00 kg
总质量 60.00 kg
长度 0.80 m
直径 0.80 m
跨度 0.80 m
形状 Poly
制造商 NPOPM
平台类型 Strela-1 11F625
阶段状态 In Orbit
所有者/国家 GUKOSR/SU

Most Searched